Time,TemperatureF,DewpointF,PressureIn,WindDirection,WindDirectionDegrees,WindSpeedMPH,WindSpeedGustMPH,Humidity,HourlyPrecipIn,Conditions,Clouds,dailyrainin,SolarRadiationWatts/m^2,SoftwareType,DateUTC
2013-03-18 00:02:00,31.0,19.0,-100.00,North,-999,-999.0,4.0,61,0.00,,,-99.99,0.000000,,2013-03-18 06:02:00,
2013-03-18 00:12:00,30.0,19.0,-100.00,North,-999,-999.0,5.0,63,0.00,,,-99.99,0.000000,,2013-03-18 06:12:00,
2013-03-18 00:21:00,30.0,19.0,-100.00,North,-999,-999.0,5.0,63,0.00,,,-99.99,0.000000,,2013-03-18 06:21:00,
2013-03-18 00:32:00,30.0,19.0,-100.00,North,-999,-999.0,5.0,63,0.00,,,-99.99,0.000000,,2013-03-18 06:32:00,
2013-03-18 00:42:00,30.0,19.0,-100.00,North,-999,-999.0,5.0,63,0.00,,,-99.99,0.000000,,2013-03-18 06:42:00,
2013-03-18 01:23:00,31.0,19.0,-100.00,North,-999,-999.0,5.0,62,0.00,,,-99.99,0.000000,,2013-03-18 07:23:00,
2013-03-18 01:33:00,30.0,19.0,-100.00,North,-999,-999.0,6.0,64,0.00,,,-99.99,0.000000,,2013-03-18 07:33:00,
2013-03-18 01:42:00,32.0,19.0,-100.00,North,-999,-999.0,7.0,57,0.00,,,-99.99,0.000000,,2013-03-18 07:42:00,
2013-03-18 01:52:00,31.0,19.0,-100.00,North,-999,-999.0,6.0,60,0.00,,,-99.99,0.000000,,2013-03-18 07:52:00,
2013-03-18 02:02:00,31.0,18.0,-100.00,North,-999,-999.0,6.0,59,0.00,,,-99.99,0.000000,,2013-03-18 08:02:00,
2013-03-18 02:11:00,29.0,18.0,-100.00,North,-999,-999.0,4.0,64,0.00,,,-99.99,0.000000,,2013-03-18 08:11:00,
2013-03-18 02:21:00,32.0,19.0,-100.00,North,-999,-999.0,9.0,59,0.00,,,-99.99,0.000000,,2013-03-18 08:21:00,
2013-03-18 02:32:00,32.0,20.0,-100.00,North,-999,-999.0,9.0,59,0.00,,,-99.99,0.000000,,2013-03-18 08:32:00,
2013-03-18 02:42:00,33.0,19.0,-100.00,North,-999,-999.0,12.0,56,0.00,,,-99.99,0.000000,,2013-03-18 08:42:00,
2013-03-18 02:51:00,32.0,19.0,-100.00,North,-999,-999.0,8.0,59,0.00,,,-99.99,0.000000,,2013-03-18 08:51:00,
2013-03-18 03:02:00,32.0,19.0,-100.00,North,-999,-999.0,7.0,58,0.00,,,-99.99,0.000000,,2013-03-18 09:02:00,
2013-03-18 03:12:00,33.0,19.0,-100.00,North,-999,-999.0,9.0,56,0.00,,,-99.99,0.000000,,2013-03-18 09:12:00,
2013-03-18 03:22:00,31.0,19.0,-100.00,North,-999,-999.0,9.0,59,0.00,,,-99.99,0.000000,,2013-03-18 09:22:00,
2013-03-18 03:32:00,31.0,18.0,-100.00,North,-999,-999.0,7.0,59,0.00,,,-99.99,0.000000,,2013-03-18 09:32:00,
2013-03-18 03:42:00,32.0,19.0,-100.00,North,-999,-999.0,9.0,58,0.00,,,-99.99,0.000000,,2013-03-18 09:42:00,
2013-03-18 03:52:00,32.0,19.0,-100.00,North,-999,-999.0,8.0,57,0.00,,,-99.99,0.000000,,2013-03-18 09:52:00,
2013-03-18 04:03:00,32.0,18.0,-100.00,North,-999,-999.0,8.0,56,0.00,,,-99.99,0.000000,,2013-03-18 10:03:00,
2013-03-18 04:12:00,31.0,18.0,-100.00,North,-999,-999.0,4.0,58,0.00,,,-99.99,0.000000,,2013-03-18 10:12:00,
2013-03-18 04:23:00,30.0,17.0,-100.00,North,-999,-999.0,4.0,58,0.00,,,-99.99,0.000000,,2013-03-18 10:23:00,
2013-03-18 04:32:00,30.0,18.0,-100.00,North,-999,-999.0,4.0,60,0.00,,,-99.99,0.000000,,2013-03-18 10:32:00,
2013-03-18 04:42:00,29.0,17.0,-100.00,North,-999,-999.0,1.0,62,0.00,,,-99.99,0.000000,,2013-03-18 10:42:00,
2013-03-18 04:50:00,27.0,18.0,-100.00,North,-999,-999.0,5.0,69,0.00,,,-99.99,0.000000,,2013-03-18 10:50:00,
2013-03-18 04:52:00,28.0,17.0,-100.00,North,-999,-999.0,2.0,63,0.00,,,-99.99,0.000000,,2013-03-18 10:52:00,
2013-03-18 05:02:00,29.0,18.0,-100.00,North,-999,-999.0,5.0,64,0.00,,,-99.99,0.000000,,2013-03-18 11:02:00,
2013-03-18 05:12:00,27.0,18.0,-100.00,North,-999,-999.0,5.0,69,0.00,,,-99.99,0.000000,,2013-03-18 11:12:00,
2013-03-18 05:21:00,27.0,18.0,-100.00,North,-999,-999.0,5.0,69,0.00,,,-99.99,0.000000,,2013-03-18 11:21:00,
2013-03-18 05:31:00,27.0,18.0,-100.00,North,-999,-999.0,5.0,69,0.00,,,-99.99,0.000000,,2013-03-18 11:31:00,
2013-03-18 05:42:00,27.0,18.0,-100.00,North,-999,-999.0,5.0,69,0.00,,,-99.99,0.000000,,2013-03-18 11:42:00,
2013-03-18 06:22:00,27.0,19.0,-100.00,North,-999,-999.0,5.0,69,0.00,,,-99.99,0.000000,,2013-03-18 12:22:00,
2013-03-18 06:33:00,29.0,19.0,-100.00,North,-999,-999.0,6.0,65,0.00,,,-99.99,0.000000,,2013-03-18 12:33:00,
2013-03-18 06:43:00,31.0,18.0,-100.00,North,-999,-999.0,8.0,59,0.00,,,-99.99,0.000000,,2013-03-18 12:43:00,
2013-03-18 06:52:00,31.0,18.0,-100.00,North,-999,-999.0,9.0,59,0.00,,,-99.99,0.000000,,2013-03-18 12:52:00,
2013-03-18 07:02:00,30.0,18.0,-100.00,North,-999,-999.0,7.0,61,0.00,,,-99.99,0.000000,,2013-03-18 13:02:00,
2013-03-18 07:11:00,31.0,19.0,-100.00,North,-999,-999.0,8.0,59,0.00,,,-99.99,0.000000,,2013-03-18 13:11:00,
2013-03-18 07:21:00,32.0,18.0,-100.00,North,-999,-999.0,9.0,57,0.00,,,-99.99,0.000000,,2013-03-18 13:21:00,
2013-03-18 07:32:00,31.0,19.0,-100.00,North,-999,-999.0,9.0,61,0.00,,,-99.99,0.000000,,2013-03-18 13:32:00,
2013-03-18 07:42:00,31.0,20.0,-100.00,North,-999,-999.0,11.0,64,0.00,,,-99.99,0.000000,,2013-03-18 13:42:00,
2013-03-18 07:52:00,29.0,20.0,-100.00,North,-999,-999.0,6.0,67,0.00,,,-99.99,2.000000,,2013-03-18 13:52:00,
2013-03-18 08:02:00,28.0,20.0,-100.00,North,-999,-999.0,4.0,70,0.00,,,-99.99,6.000000,,2013-03-18 14:02:00,
2013-03-18 08:12:00,29.0,19.0,-100.00,North,-999,-999.0,4.0,65,0.00,,,-99.99,13.000000,,2013-03-18 14:12:00,
2013-03-18 08:21:00,31.0,19.0,-100.00,North,-999,-999.0,4.0,62,0.00,,,-99.99,24.000000,,2013-03-18 14:21:00,
2013-03-18 08:32:00,32.0,19.0,-100.00,North,-999,-999.0,7.0,58,0.00,,,-99.99,32.000000,,2013-03-18 14:32:00,
2013-03-18 08:42:00,33.0,20.0,-100.00,North,-999,-999.0,6.0,59,0.00,,,-99.99,49.000000,,2013-03-18 14:42:00,
2013-03-18 08:51:00,32.0,21.0,-100.00,North,-999,-999.0,5.0,63,0.00,,,-99.99,65.000000,,2013-03-18 14:51:00,
2013-03-18 09:02:00,33.0,20.0,-100.00,North,-999,-999.0,3.0,60,0.00,,,-99.99,84.000000,,2013-03-18 15:02:00,
2013-03-18 09:11:00,33.0,20.0,-100.00,North,-999,-999.0,10.0,57,0.00,,,-99.99,108.000000,,2013-03-18 15:11:00,
2013-03-18 09:21:00,34.0,20.0,-100.00,North,-999,-999.0,11.0,56,0.00,,,-99.99,121.000000,,2013-03-18 15:21:00,
2013-03-18 09:33:00,35.0,22.0,-100.00,North,-999,-999.0,8.0,59,0.00,,,-99.99,131.000000,,2013-03-18 15:33:00,
2013-03-18 09:42:00,35.0,21.0,-100.00,North,-999,-999.0,10.0,56,0.00,,,-99.99,153.000000,,2013-03-18 15:42:00,
2013-03-18 09:50:00,37.0,22.0,-100.00,North,-999,-999.0,16.0,55,0.00,,,-99.99,246.000000,,2013-03-18 15:50:00,
2013-03-18 09:52:00,35.0,23.0,-100.00,North,-999,-999.0,5.0,63,0.00,,,-99.99,166.000000,,2013-03-18 15:52:00,
2013-03-18 10:02:00,37.0,19.0,-100.00,North,-999,-999.0,13.0,49,0.00,,,-99.99,269.000000,,2013-03-18 16:02:00,
2013-03-18 10:12:00,37.0,22.0,-100.00,North,-999,-999.0,16.0,55,0.00,,,-99.99,246.000000,,2013-03-18 16:12:00,
2013-03-18 10:22:00,37.0,22.0,-100.00,North,-999,-999.0,16.0,55,0.00,,,-99.99,246.000000,,2013-03-18 16:22:00,
2013-03-18 10:32:00,37.0,22.0,-100.00,North,-999,-999.0,16.0,55,0.00,,,-99.99,246.000000,,2013-03-18 16:32:00,
2013-03-18 10:42:00,37.0,22.0,-100.00,North,-999,-999.0,16.0,55,0.00,,,-99.99,246.000000,,2013-03-18 16:42:00,
2013-03-18 11:22:00,43.0,21.0,-100.00,North,-999,-999.0,14.0,41,0.00,,,-99.99,763.000000,,2013-03-18 17:22:00,
2013-03-18 11:33:00,45.0,21.0,-100.00,North,-999,-999.0,14.0,39,0.00,,,-99.99,736.000000,,2013-03-18 17:33:00,
2013-03-18 11:42:00,45.0,20.0,-100.00,North,-999,-999.0,12.0,37,0.00,,,-99.99,827.000000,,2013-03-18 17:42:00,
2013-03-18 11:52:00,46.0,16.0,-100.00,North,-999,-999.0,10.0,30,0.00,,,-99.99,841.000000,,2013-03-18 17:52:00,
2013-03-18 12:01:00,47.0,14.0,-100.00,North,-999,-999.0,10.0,26,0.00,,,-99.99,681.000000,,2013-03-18 18:01:00,
2013-03-18 12:12:00,47.0,18.0,-100.00,North,-999,-999.0,11.0,31,0.00,,,-99.99,846.000000,,2013-03-18 18:12:00,
2013-03-18 12:21:00,48.0,18.0,-100.00,North,-999,-999.0,9.0,29,0.00,,,-99.99,918.000000,,2013-03-18 18:21:00,
2013-03-18 12:32:00,48.0,17.0,-100.00,North,-999,-999.0,13.0,28,0.00,,,-99.99,1116.000000,,2013-03-18 18:32:00,
2013-03-18 12:42:00,47.0,16.0,-100.00,North,-999,-999.0,13.0,28,0.00,,,-99.99,376.000000,,2013-03-18 18:42:00,
2013-03-18 12:52:00,47.0,15.0,-100.00,North,-999,-999.0,12.0,27,0.00,,,-99.99,399.000000,,2013-03-18 18:52:00,
2013-03-18 13:02:00,47.0,15.0,-100.00,North,-999,-999.0,9.0,27,0.00,,,-99.99,367.000000,,2013-03-18 19:02:00,
2013-03-18 13:11:00,47.0,15.0,-100.00,North,-999,-999.0,9.0,27,0.00,,,-99.99,439.000000,,2013-03-18 19:11:00,
2013-03-18 13:21:00,48.0,15.0,-100.00,North,-999,-999.0,8.0,27,0.00,,,-99.99,362.000000,,2013-03-18 19:21:00,
2013-03-18 13:32:00,48.0,16.0,-100.00,North,-999,-999.0,11.0,27,0.00,,,-99.99,302.000000,,2013-03-18 19:32:00,
2013-03-18 13:42:00,48.0,18.0,-100.00,North,-999,-999.0,7.0,30,0.00,,,-99.99,787.000000,,2013-03-18 19:42:00,
2013-03-18 13:52:00,48.0,18.0,-100.00,North,-999,-999.0,11.0,30,0.00,,,-99.99,323.000000,,2013-03-18 19:52:00,
2013-03-18 14:02:00,48.0,18.0,-100.00,North,-999,-999.0,11.0,30,0.00,,,-99.99,741.000000,,2013-03-18 20:02:00,
2013-03-18 14:11:00,49.0,15.0,-100.00,North,-999,-999.0,11.0,26,0.00,,,-99.99,422.000000,,2013-03-18 20:11:00,
2013-03-18 14:22:00,50.0,16.0,-100.00,North,-999,-999.0,7.0,25,0.00,,,-99.99,1112.000000,,2013-03-18 20:22:00,
2013-03-18 14:32:00,52.0,16.0,-100.00,North,-999,-999.0,5.0,24,0.00,,,-99.99,562.000000,,2013-03-18 20:32:00,
2013-03-18 14:42:00,51.0,14.0,-100.00,North,-999,-999.0,10.0,23,0.00,,,-99.99,1035.000000,,2013-03-18 20:42:00,
2013-03-18 14:50:00,53.0,16.0,-100.00,North,-999,-999.0,9.0,22,0.00,,,-99.99,1004.000000,,2013-03-18 20:50:00,
2013-03-18 14:52:00,52.0,15.0,-100.00,North,-999,-999.0,8.0,23,0.00,,,-99.99,1007.000000,,2013-03-18 20:52:00,
2013-03-18 15:02:00,52.0,17.0,-100.00,North,-999,-999.0,9.0,24,0.00,,,-99.99,975.000000,,2013-03-18 21:02:00,
2013-03-18 15:11:00,53.0,16.0,-100.00,North,-999,-999.0,9.0,22,0.00,,,-99.99,1004.000000,,2013-03-18 21:11:00,
2013-03-18 15:21:00,53.0,16.0,-100.00,North,-999,-999.0,9.0,22,0.00,,,-99.99,1004.000000,,2013-03-18 21:21:00,
2013-03-18 15:32:00,53.0,16.0,-100.00,North,-999,-999.0,9.0,22,0.00,,,-99.99,1004.000000,,2013-03-18 21:32:00,
2013-03-18 15:42:00,53.0,16.0,-100.00,North,-999,-999.0,9.0,22,0.00,,,-99.99,1004.000000,,2013-03-18 21:42:00,
2013-03-18 16:23:00,54.0,10.0,-100.00,North,-999,-999.0,17.0,17,0.00,,,-99.99,823.000000,,2013-03-18 22:23:00,
2013-03-18 16:33:00,54.0,12.0,-100.00,North,-999,-999.0,19.0,19,0.00,,,-99.99,800.000000,,2013-03-18 22:33:00,
2013-03-18 16:42:00,54.0,11.0,-100.00,North,-999,-999.0,18.0,18,0.00,,,-99.99,744.000000,,2013-03-18 22:42:00,
2013-03-18 16:52:00,54.0,9.0,-100.00,North,-999,-999.0,17.0,16,0.00,,,-99.99,691.000000,,2013-03-18 22:52:00,
2013-03-18 17:02:00,54.0,11.0,-100.00,North,-999,-999.0,16.0,18,0.00,,,-99.99,657.000000,,2013-03-18 23:02:00,
2013-03-18 17:12:00,54.0,9.0,-100.00,North,-999,-999.0,14.0,16,0.00,,,-99.99,622.000000,,2013-03-18 23:12:00,
2013-03-18 17:22:00,53.0,10.0,-100.00,North,-999,-999.0,18.0,17,0.00,,,-99.99,599.000000,,2013-03-18 23:22:00,
2013-03-18 17:32:00,54.0,10.0,-100.00,North,-999,-999.0,12.0,17,0.00,,,-99.99,550.000000,,2013-03-18 23:32:00,
2013-03-18 17:42:00,54.0,12.0,-100.00,North,-999,-999.0,9.0,18,0.00,,,-99.99,515.000000,,2013-03-18 23:42:00,
2013-03-18 17:52:00,54.0,11.0,-100.00,North,-999,-999.0,13.0,18,0.00,,,-99.99,515.000000,,2013-03-18 23:52:00,
2013-03-18 18:02:00,54.0,15.0,-100.00,North,-999,-999.0,11.0,21,0.00,,,-99.99,194.000000,,2013-03-19 00:02:00,
2013-03-18 18:11:00,52.0,12.0,-100.00,North,-999,-999.0,15.0,20,0.00,,,-99.99,161.000000,,2013-03-19 00:11:00,
2013-03-18 18:22:00,51.0,14.0,-100.00,North,-999,-999.0,13.0,22,0.00,,,-99.99,134.000000,,2013-03-19 00:22:00,
2013-03-18 18:32:00,51.0,14.0,-100.00,North,-999,-999.0,13.0,22,0.00,,,-99.99,134.000000,,2013-03-19 00:32:00,
2013-03-18 18:42:00,52.0,13.0,-100.00,North,-999,-999.0,12.0,21,0.00,,,-99.99,124.000000,,2013-03-19 00:42:00,
2013-03-18 18:51:00,51.0,14.0,-100.00,North,-999,-999.0,14.0,22,0.00,,,-99.99,128.000000,,2013-03-19 00:51:00,
2013-03-18 19:02:00,51.0,14.0,-100.00,North,-999,-999.0,10.0,23,0.00,,,-99.99,111.000000,,2013-03-19 01:02:00,
2013-03-18 19:11:00,51.0,14.0,-100.00,North,-999,-999.0,10.0,23,0.00,,,-99.99,169.000000,,2013-03-19 01:11:00,
2013-03-18 19:21:00,52.0,14.0,-100.00,North,-999,-999.0,6.0,22,0.00,,,-99.99,134.000000,,2013-03-19 01:21:00,
2013-03-18 19:32:00,50.0,16.0,-100.00,North,-999,-999.0,9.0,25,0.00,,,-99.99,102.000000,,2013-03-19 01:32:00,
2013-03-18 19:42:00,49.0,18.0,-100.00,North,-999,-999.0,8.0,28,0.00,,,-99.99,61.000000,,2013-03-19 01:42:00,
2013-03-18 19:50:00,45.0,17.0,-100.00,North,-999,-999.0,8.0,32,0.00,,,-99.99,1.000000,,2013-03-19 01:50:00,
2013-03-18 19:52:00,48.0,18.0,-100.00,North,-999,-999.0,10.0,30,0.00,,,-99.99,19.000000,,2013-03-19 01:52:00,
2013-03-18 20:01:00,47.0,17.0,-100.00,North,-999,-999.0,7.0,30,0.00,,,-99.99,3.000000,,2013-03-19 02:01:00,
2013-03-18 20:12:00,45.0,17.0,-100.00,North,-999,-999.0,8.0,32,0.00,,,-99.99,1.000000,,2013-03-19 02:12:00,
2013-03-18 20:21:00,45.0,17.0,-100.00,North,-999,-999.0,8.0,32,0.00,,,-99.99,1.000000,,2013-03-19 02:21:00,
2013-03-18 20:32:00,45.0,17.0,-100.00,North,-999,-999.0,8.0,32,0.00,,,-99.99,1.000000,,2013-03-19 02:32:00,
2013-03-18 20:42:00,45.0,17.0,-100.00,North,-999,-999.0,8.0,32,0.00,,,-99.99,1.000000,,2013-03-19 02:42:00,
2013-03-18 21:22:00,39.0,18.0,-100.00,North,-999,-999.0,3.0,42,0.00,,,-99.99,0.000000,,2013-03-19 03:22:00,
2013-03-18 21:33:00,37.0,18.0,-100.00,North,-999,-999.0,6.0,47,0.00,,,-99.99,0.000000,,2013-03-19 03:33:00,
2013-03-18 21:43:00,38.0,18.0,-100.00,North,-999,-999.0,5.0,45,0.00,,,-99.99,0.000000,,2013-03-19 03:43:00,
2013-03-18 21:53:00,38.0,18.0,-100.00,North,-999,-999.0,5.0,44,0.00,,,-99.99,0.000000,,2013-03-19 03:53:00,
2013-03-18 22:02:00,38.0,19.0,-100.00,North,-999,-999.0,4.0,46,0.00,,,-99.99,0.000000,,2013-03-19 04:02:00,
2013-03-18 22:12:00,36.0,19.0,-100.00,North,-999,-999.0,4.0,48,0.00,,,-99.99,0.000000,,2013-03-19 04:12:00,
2013-03-18 22:22:00,37.0,19.0,-100.00,North,-999,-999.0,4.0,48,0.00,,,-99.99,0.000000,,2013-03-19 04:22:00,
2013-03-18 22:32:00,36.0,19.0,-100.00,North,-999,-999.0,4.0,49,0.00,,,-99.99,0.000000,,2013-03-19 04:32:00,
2013-03-18 22:42:00,37.0,19.0,-100.00,North,-999,-999.0,4.0,48,0.00,,,-99.99,0.000000,,2013-03-19 04:42:00,
2013-03-18 22:52:00,37.0,19.0,-100.00,North,-999,-999.0,5.0,48,0.00,,,-99.99,0.000000,,2013-03-19 04:52:00,
2013-03-18 23:02:00,37.0,19.0,-100.00,North,-999,-999.0,5.0,48,0.00,,,-99.99,0.000000,,2013-03-19 05:02:00,
2013-03-18 23:11:00,35.0,19.0,-100.00,North,-999,-999.0,5.0,52,0.00,,,-99.99,0.000000,,2013-03-19 05:11:00,
2013-03-18 23:22:00,36.0,19.0,-100.00,North,-999,-999.0,4.0,49,0.00,,,-99.99,0.000000,,2013-03-19 05:22:00,
2013-03-18 23:32:00,37.0,18.0,-100.00,North,-999,-999.0,4.0,47,0.00,,,-99.99,0.000000,,2013-03-19 05:32:00,
2013-03-18 23:42:00,36.0,19.0,-100.00,North,-999,-999.0,5.0,50,0.00,,,-99.99,0.000000,,2013-03-19 05:42:00,
2013-03-18 23:51:00,34.0,20.0,-100.00,North,-999,-999.0,4.0,56,0.00,,,-99.99,0.000000,,2013-03-19 05:51:00,